Morrisville, NC

8:24 PM EST on February 27, 2017 (GMT -0500)
Raleigh-Durham International

Weather History for KRDU - January, 2014

Change the Weather History Date:

Tuesday, January 7, 2014

  Actual Average Record
Temperature  
Mean Temperature 17 °F 40 °F  
Max Temperature 25 °F 50 °F 75 °F (1907)
Min Temperature 9 °F 31 °F 9 °F (2014)
Degree Days  
Heating Degree Days 48 25  
Month to date heating degree days 204 170  
Since 1 July heating degree days 1436 1421  
Cooling Degree Days 0 0  
Month to date cooling degree days 0 0  
Year to date cooling degree days 0 0  
Moisture  
Dew Point -6 °F    
Average Humidity 42    
Maximum Humidity 56    
Minimum Humidity 27    
Precipitation  
Precipitation 0.00 in 0.12 in 1.18 in (1894)
Month to date precipitation 0.46 0.76  
Year to date precipitation 0.46 0.76  
Snow  
Snow 0.00 in 0.10 in 7.10 in (1988)
Month to date snowfall 0.0 0.5  
Since 1 July snowfall T 1.2  
Snow Depth 0.00 in    
Sea Level Pressure  
Sea Level Pressure 30.41 in    
Wind  
Wind Speed 8 mph (West)    
Max Wind Speed 16 mph    
Max Gust Speed 25 mph    
Visibility 10 miles    
Events      
T = Trace of Precipitation, MM = Missing Value Source: NWS Daily Summary

Daily Weather History Graph

Daily Weather History Graph

Search for Another Location

Airport or City:

Trip Planner

Search our weather history database for the weather conditions in past years. The results will help you decide how hot, cold, wet, or windy it might be!

Date:

Astronomy

Jan. 07, 2014 Rise Set
Actual Time 7:25 AM EST 5:17 PM EST
Civil Twilight 6:57 AM EST 5:45 PM EST
Nautical Twilight 6:25 AM EST 6:17 PM EST
Astronomical Twilight 5:54 AM EST 6:48 PM EST
Moon 11:27 AM EST (1/7) No Moon Set
Length of Visible Light 10h 47m
Length of Day
9h 51m
Waxing Crescent, 45% of the Moon is Illuminated
Jan 7
Waxing Crescent
Jan 7
First Quarter
Jan 15
Full
Jan 24
Last Quarter
Jan 30
New

Hourly Weather History & Observations

Time (EST) Temp. Windchill Dew Point Humidity Pressure Visibility Wind Dir Wind Speed Gust Speed Precip Events Conditions
12:51 AM 14.0 °F -0.2 °F -9.0 °F 35% 30.22 in 10.0 mi WNW 12.7 mph 23.0 mph N/A   Clear
1:51 AM 12.9 °F 0.7 °F -9.0 °F 37% 30.25 in 10.0 mi WNW 9.2 mph 21.9 mph N/A   Partly Cloudy
2:51 AM 12.0 °F -2.7 °F -9.9 °F 37% 30.29 in 10.0 mi NW 12.7 mph 25.3 mph N/A   Partly Cloudy
3:51 AM 10.9 °F -2.6 °F -11.0 °F 37% 30.34 in 10.0 mi NW 10.4 mph 16.1 mph N/A   Partly Cloudy
4:51 AM 10.0 °F -2.9 °F -11.0 °F 38% 30.35 in 10.0 mi WNW 9.2 mph 17.3 mph N/A   Clear
5:51 AM 9.0 °F -7.3 °F -11.0 °F 40% 30.39 in 10.0 mi WNW 13.8 mph 19.6 mph N/A   Clear
6:51 AM 9.0 °F -2.2 °F -11.0 °F 40% 30.40 in 10.0 mi West 6.9 mph - N/A   Clear
7:51 AM 9.0 °F 0.6 °F -9.9 °F 42% 30.40 in 10.0 mi WNW 4.6 mph - N/A   Clear
8:51 AM 10.9 °F -1.8 °F -11.0 °F 37% 30.47 in 10.0 mi WNW 9.2 mph - N/A   Clear
9:51 AM 12.9 °F -0.2 °F -9.9 °F 35% 30.51 in 10.0 mi WNW 10.4 mph - N/A   Clear
10:51 AM 17.1 °F 5.8 °F -9.0 °F 31% 30.50 in 10.0 mi NW 9.2 mph - N/A   Clear
11:51 AM 19.0 °F 11.1 °F -9.0 °F 29% 30.45 in 10.0 mi Variable 5.8 mph 16.1 mph N/A   Clear
12:51 PM 19.9 °F 10.1 °F -7.1 °F 30% 30.41 in 10.0 mi WNW 8.1 mph - N/A   Partly Cloudy
1:51 PM 24.1 °F 17.0 °F -5.1 °F 28% 30.40 in 10.0 mi Variable 5.8 mph - N/A   Partly Cloudy
2:51 PM 24.1 °F 14.4 °F -6.0 °F 27% 30.41 in 10.0 mi West 9.2 mph - N/A   Partly Cloudy
3:51 PM 24.1 °F 16.0 °F -6.0 °F 27% 30.41 in 10.0 mi Variable 6.9 mph - N/A   Scattered Clouds
4:51 PM 23.0 °F 15.8 °F -6.0 °F 28% 30.43 in 10.0 mi West 5.8 mph - N/A   Scattered Clouds
5:51 PM 21.0 °F 16.2 °F -4.0 °F 33% 30.46 in 10.0 mi WSW 3.5 mph - N/A   Scattered Clouds
6:51 PM 19.9 °F 13.4 °F -2.9 °F 37% 30.48 in 10.0 mi West 4.6 mph - N/A   Partly Cloudy
7:51 PM 19.0 °F 13.9 °F 1.0 °F 46% 30.50 in 10.0 mi SW 3.5 mph - N/A   Partly Cloudy
8:51 PM 19.0 °F 11.1 °F 1.9 °F 47% 30.49 in 10.0 mi SSW 5.8 mph - N/A   Partly Cloudy
9:51 PM 19.0 °F 13.9 °F 3.0 °F 50% 30.51 in 10.0 mi WSW 3.5 mph - N/A   Partly Cloudy
10:51 PM 17.1 °F 8.7 °F 5.0 °F 59% 30.52 in 10.0 mi SW 5.8 mph - N/A   Partly Cloudy
11:51 PM 17.1 °F 10.0 °F 5.0 °F 59% 30.51 in 10.0 mi WSW 4.6 mph - N/A   Clear